Home > Weather > Aarau > Past weeks

Flag for Switzerland Weather for the Past 2 Weeks in Aarau, Aargau, Switzerland

Now
44 °F

Quite cool.


Feels Like: 39 °F
Forecast: 32 / 40 °F
Wind: 9 mph from Southwest

Location: Wynau

Current Time: Feb 14, 2016 at 3:06:48 AM

Latest Report: Feb 14, 2016 at 2:00 AM


Visibility: N/A

Pressure: 29.23 "Hg

Humidity: 79%

Dew point: 38 °F

Location of AarauLocation

Historic Weather in Aarau — Graph

°F

Aarau Temperature Yesterday

Maximum temperature yesterday: 43 °F (at 1:00 PM)
Minimum temperature yesterday: 37 °F (at 4:00 AM)
Average temperature yesterday: 40 °F

High & Low Weather Summary for the Past Weeks

 TemperatureHumidityPressure
High56 °F (Feb 1, 3:00 PM)100% (Jan 30, 1:00 AM)30.53 "Hg (Jan 30, 1:00 AM)
Low30 °F (Jan 30, 7:00 AM)45% (Jan 30, 3:00 PM)29.23 "Hg (Feb 13, 4:00 PM)
Average41 °F85%29.97 "Hg
* Reported Jan 30 1:00 AM — Feb 14 1:00 AM, Aarau, Weather by CustomWeather, © 2016

Note: Actual official high and low records may vary slightly from our data, if they occured in-between our weather recording intervals... More about our weather records

Advertising

Aarau Weather History for the Previous 24 Hours

 ConditionsComfort  
Time TempWeatherWind HumidityBarometerVisibility
1:00 AM
Sun, Feb 14
45 °FCool.12 mph79%29.23 "HgN/A
9:00 PM
Sat, Feb 13
42 °FQuite cool.6 mph93%29.23 "HgN/A
8:00 PM42 °FQuite cool.7 mph94%29.23 "HgN/A
7:00 PM42 °FQuite cool.8 mph88%29.23 "HgN/A
6:00 PM40 °FChilly.2 mph99%29.26 "HgN/A
5:00 PM41 °FQuite cool.8 mph93%29.26 "HgN/A
4:00 PM41 °FQuite cool.6 mph94%29.23 "HgN/A
3:00 PM42 °FQuite cool.5 mph92%29.26 "HgN/A
2:00 PM43 °FQuite cool.10 mph80%29.29 "HgN/A
1:00 PM43 °FQuite cool.7 mph81%29.29 "HgN/A
12:00 PM40 °FQuite cool.3 mph89%29.35 "HgN/A
11:00 AM40 °FChilly.7 mph91%29.38 "HgN/A
10:00 AM39 °FChilly.6 mph92%29.38 "HgN/A
9:00 AM39 °FChilly.3 mph94%29.41 "HgN/A
8:00 AM38 °FChilly.5 mph97%29.41 "HgN/A
7:00 AM38 °FChilly.6 mph95%29.41 "HgN/A
6:00 AM38 °FChilly.8 mph97%29.44 "HgN/A
5:00 AM38 °FChilly.9 mph95%29.44 "HgN/A
4:00 AM37 °FChilly.7 mph96%29.44 "HgN/A
Weather by CustomWeather, © 2016

See weather overviewHow to use our weather pages